This is the latest recevied weather packets stored in our database for station/object WX7FGZ-7. If no packets are shown the sender has not sent any weather packets the latest 10 day(s).
| Time | Temp. | Humidity | Pressure | Rain* | Wind** | Luminosity | Snow |
|---|---|---|---|---|---|---|---|
| 1777495859 | 22.22° C | 15% | 1017.2 hPa | 0 mm | - | - | - |
| 1777495555 | 21.11° C | 16% | 1017.5 hPa | 0 mm | - | - | - |
| 1777495261 | 21.11° C | 16% | 1017.5 hPa | 0 mm | - | - | - |
| 1777494955 | 21.67° C | 15% | 1017.6 hPa | 0 mm | - | - | - |
| 1777494660 | 22.22° C | 16% | 1017.7 hPa | 0 mm | - | - | - |
| 1777494357 | 21.67° C | 16% | 1017.7 hPa | 0 mm | - | - | - |
| 1777493755 | 23.33° C | 14% | 1017.9 hPa | 0 mm | - | - | - |
| 1777493455 | 23.89° C | 14% | 1018.1 hPa | 0 mm | - | - | - |
| 1777493174 | 23.33° C | 15% | 1018 hPa | 0 mm | - | - | - |
| 1777492859 | 22.78° C | 16% | 1018.2 hPa | 0 mm | - | - | - |
| 1777492555 | 22.22° C | 15% | 1018.3 hPa | 0 mm | - | - | - |
| 1777491691 | 22.78° C | 15% | 1018.5 hPa | 0 mm | - | - | - |
| 1777491655 | 22.78° C | 15% | 1018.5 hPa | 0 mm | - | - | - |
| 1777491360 | 22.78° C | 16% | 1018.6 hPa | 0 mm | - | - | - |
| 1777491060 | 22.22° C | 16% | 1018.7 hPa | 0 mm | - | - | - |
| 1777490761 | 22.22° C | 16% | 1018.9 hPa | 0 mm | - | - | - |
| 1777490459 | 22.22° C | 16% | 1018.9 hPa | 0 mm | - | - | - |
| 1777490155 | 22.22° C | 17% | 1019 hPa | 0 mm | - | - | - |
| 1777489858 | 22.22° C | 17% | 1019.1 hPa | 0 mm | - | - | - |
| 1777488964 | 21.67° C | 16% | 1019.3 hPa | 0 mm | - | - | - |
| 1777488655 | 21.67° C | 17% | 1019.4 hPa | 0 mm | - | - | - |
| 1777488355 | 21.67° C | 18% | 1019.5 hPa | 0 mm | - | - | - |
| 1777488059 | 21.67° C | 17% | 1019.6 hPa | 0 mm | - | - | - |
| 1777487829 | 21.67° C | 17% | 1019.7 hPa | 0 mm | - | - | - |
| 1777487756 | 21.67° C | 17% | 1019.7 hPa | 0 mm | - | - | - |
* Rain latest hour (hover to see other rain measurements)
** Current wind speed in m/s (hover to see current wind gust speed)